This is the latest recevied weather packets stored in our database for station/object N8SDR. If no packets are shown the sender has not sent any weather packets the latest 10 day(s).
| Time | Temp. | Humidity | Pressure | Rain* | Wind** | Luminosity | Snow |
|---|---|---|---|---|---|---|---|
| 1778118618 | 10° C | 87% | 1011 hPa | 0 mm | - | 0 W/m² | - |
| 1778118314 | 10° C | 86% | 1010.7 hPa | 0 mm | - | 0 W/m² | - |
| 1778118010 | 10° C | 86% | 1011 hPa | 0 mm | - | 0 W/m² | - |
| 1778117707 | 10° C | 85% | 1011 hPa | 0 mm | - | 0 W/m² | - |
| 1778117404 | 10° C | 84% | 1010.7 hPa | 0 mm | - | 0 W/m² | - |
| 1778117101 | 10° C | 83% | 1010.6 hPa | 0 mm | - | 0 W/m² | - |
| 1778116797 | 10° C | 83% | 1010.7 hPa | 0 mm | - | 0 W/m² | - |
| 1778116495 | 10° C | 82% | 1010.7 hPa | 0 mm | - | 0 W/m² | - |
| 1778116190 | 10.56° C | 81% | 1010.7 hPa | 0 mm | - | 0 W/m² | - |
| 1778115885 | 10.56° C | 80% | 1010.6 hPa | 0 mm | - | 0 W/m² | - |
| 1778115582 | 11.11° C | 79% | 1010.4 hPa | 0 mm | - | 0 W/m² | - |
| 1778115279 | 11.11° C | 77% | 1010.4 hPa | 0 mm | - | 0 W/m² | - |
| 1778114976 | 11.67° C | 76% | 1010.7 hPa | 0 mm | - | 0 W/m² | - |
| 1778114672 | 12.22° C | 73% | 1010.7 hPa | 0 mm | - | 0 W/m² | - |
| 1778114370 | 12.22° C | 70% | 1010.6 hPa | 0 mm | - | 1 W/m² | - |
| 1778114065 | 12.78° C | 68% | 1010.3 hPa | 0 mm | - | 3 W/m² | - |
| 1778113760 | 12.78° C | 66% | 1010.3 hPa | 0 mm | - | 5 W/m² | - |
| 1778113457 | 13.33° C | 65% | 1010.2 hPa | 0 mm | - | 8 W/m² | - |
| 1778113154 | 13.33° C | 64% | 1010.1 hPa | 0 mm | - | 12 W/m² | - |
| 1778112851 | 13.33° C | 64% | 1010 hPa | 0 mm | - | 16 W/m² | - |
| 1778112548 | 13.89° C | 63% | 1010 hPa | 0 mm | - | 19 W/m² | - |
| 1778112243 | 13.89° C | 63% | 1010.1 hPa | 0 mm | - | 27 W/m² | - |
| 1778111939 | 13.89° C | 62% | 1010 hPa | 0 mm | - | 32 W/m² | - |
| 1778111637 | 13.89° C | 61% | 1010 hPa | 0 mm | - | 35 W/m² | - |
| 1778111332 | 13.89° C | 61% | 1010 hPa | 0 mm | - | 37 W/m² | - |
* Rain latest hour (hover to see other rain measurements)
** Current wind speed in m/s (hover to see current wind gust speed)